カタログに戻る

STARLINK-35905

運用中通信VLEO
NORAD 67048·PAYLOAD·🇺🇸 United States

打ち上げ Dec 11, 2025 から Cape Canaveral Space Force Station

Loading…

次のパス (今後24時間)

TLE

最新Source: CelesTrak SupGP

元期: Sep 14, 2026, 23:01 UTC

1 67048C 25294U   26257.95951389  .00041866  00000+0  15160-2 0  2574
2 67048  43.0044  49.2544 0001976 279.2525 119.5352 15.27565136    13

AllMySatでSTARLINK-35905をリアルタイム追跡

Download on the App Store